This demonstration page uses our WeatherBlox Daily Observations layout. Learn more.

Left ArrowRight Arrow

Hourly Observations for April 21, 2022

Temp ( °F °C ) Dew Point ( °F °C ) Humidity (%) Winds ( mph kmh ) Pressure ( in mb ) Visibility ( mi km ) Precip ( " mm )
12:15 am 00:15 Clear 46 8 27 -2.6 47 47 ESE 10 17 29.96 1015 10 16 0.00 0.00
12:35 am 00:35 Clear 45 7.3 26 -3.1 48 48 ESE 7 11 29.97 1015 10 16 0.00 0.00
12:55 am 00:55 Clear 46 7.5 27 -3 48 48 ESE 10 17 29.97 1015 10 16 0.00 0.00
1:15 am 01:15 Clear 44 6.5 26 -3.5 49 49 ESE 10 17 29.98 1015 10 16 0.00 0.00
1:35 am 01:35 Clear 44 6.9 27 -2.7 51 51 E 6 9 29.98 1015 10 16 0.00 0.00
1:55 am 01:55 Clear 46 8 28 -2.2 49 49 SE 8 13 29.98 1015 10 16 0.00 0.00
2:15 am 02:15 Clear 43 6 28 -2.5 55 55 SE 8 13 30.00 1016 10 16 0.00 0.00
2:35 am 02:35 Clear 43 5.9 28 -2.3 56 56 SSE 5 7 30.00 1016 10 16 0.00 0.00
2:55 am 02:55 Clear 42 5.7 28 -2.1 58 58 SSE 3 6 30.01 1016 10 16 0.00 0.00
3:15 am 03:15 Clear 42 5.6 29 -1.7 60 60 Calm 30.01 1016 10 16 0.00 0.00
3:35 am 03:35 Clear 42 5.6 30 -1 63 63 Calm 30.01 1016 10 16 0.00 0.00
3:55 am 03:55 Clear 43 5.9 31 -0.7 63 63 Calm 30.02 1017 10 16 0.00 0.00
4:15 am 04:15 Clear 42 5.6 30 -1 63 63 Calm 30.03 1017 10 16 0.00 0.00
4:35 am 04:35 Clear 40 4.7 30 -1.1 66 66 Calm 30.05 1018 10 16 0.00 0.00
4:55 am 04:55 Clear 35 1.7 28 -2.1 76 76 Calm 30.08 1019 10 16 0.00 0.00
5:15 am 05:15 Clear 35 1.9 28 -2.4 73 73 NNE 6 9 30.09 1019 10 16 0.00 0.00
5:35 am 05:35 Clear 35 1.5 27 -2.7 74 74 NNE 5 7 30.10 1019 10 16 0.00 0.00
5:55 am 05:55 Clear 35 1.7 28 -2.1 76 76 NNE 6 9 30.12 1020 10 16 0.00 0.00
6:15 am 06:15 Clear 35 1.4 28 -2.1 78 78 NNE 6 9 30.12 1020 10 16 0.00 0.00
6:35 am 06:35 Clear 36 2 29 -1.8 76 76 N 3 6 30.14 1021 10 16 0.00 0.00
6:55 am 06:55 Sunny 34 1.3 28 -2.4 77 77 N 3 6 30.15 1021 10 16 0.00 0.00
7:15 am 07:15 Sunny 35 1.7 29 -1.6 79 79 NNE 3 6 30.15 1021 10 16 0.00 0.00
7:35 am 07:35 Sunny 36 2.3 31 -0.5 82 82 NE 6 9 30.15 1021 10 16 0.00 0.00
7:55 am 07:55 Sunny 39 4.1 35 1.4 83 83 NNE 7 11 30.16 1021 7 11 0.00 0.00
8:15 am 08:15 Sunny 42 5.6 37 3 84 84 NNE 7 11 30.15 1021 10 16 0.00 0.00
8:35 am 08:35 Mostly Cloudy 46 7.7 41 4.8 82 82 NE 8 13 30.13 1020 10 16 0.00 0.00
8:55 am 08:55 Cloudy 48 8.8 43 5.9 82 82 NE 7 11 30.13 1020 10 16 0.00 0.00
9:15 am 09:15 Cloudy 50 10.1 45 7.2 82 82 ENE 8 13 30.12 1020 10 16 0.00 0.00
9:35 am 09:35 Mostly Cloudy 53 11.9 47 8.3 79 79 E 10 17 30.11 1020 10 16 0.00 0.00
9:55 am 09:55 Mostly Cloudy 56 13.4 48 9.1 75 75 E 10 17 30.09 1019 10 16 0.00 0.00
10:15 am 10:15 Mostly Cloudy 58 14.6 49 9.5 72 72 E 12 19 30.07 1018 10 16 0.00 0.00
10:35 am 10:35 Cloudy 59 15 50 10 72 72 E 13 20 30.07 1018 10 16 0.00 0.00
10:55 am 10:55 Cloudy 62 16.7 49 9.4 62 62 E 15 24 30.05 1018 10 16 0.00 0.00
11:15 am 11:15 Partly Cloudy 63 17 47 8.4 57 57 ESE 13 20 30.04 1017 10 16 0.00 0.00
11:35 am 11:35 Sunny 65 18.4 47 8.1 51 51 E 14 22 30.02 1017 10 16 0.00 0.00
11:55 am 11:55 Sunny 68 19.8 46 7.6 45 45 E 17 28 30.01 1016 10 16 0.00 0.00
12:15 pm 12:15 Sunny 70 21 44 6.8 40 40 ESE 14 22 30.00 1016 10 16 0.00 0.00
12:35 pm 12:35 Sunny 72 22.3 41 5.2 33 33 SE 22 35 29.99 1016 10 16 0.00 0.00
12:55 pm 12:55 Sunny 73 23 38 3.1 27 27 SE 21 33 29.97 1015 10 16 0.00 0.00
1:15 pm 13:15 Sunny 74 23.6 35 1.8 24 24 SE 22 35 29.97 1015 10 16 0.00 0.00
1:35 pm 13:35 Sunny 75 23.8 36 2.1 24 24 SE 24 39 29.96 1014 10 16 0.00 0.00
1:55 pm 13:55 Sunny 74 23.4 38 3.5 27 27 ESE 18 30 29.94 1014 10 16 0.00 0.00
2:15 pm 14:15 Sunny 75 23.7 35 1.8 24 24 ESE 18 30 29.93 1013 10 16 0.00 0.00
2:35 pm 14:35 Sunny 75 24.1 34 0.9 22 22 ESE 26 43 29.92 1013 10 16 0.00 0.00
2:55 pm 14:55 Partly Cloudy 76 24.3 31 -0.4 20 20 ESE 24 39 29.91 1013 10 16 0.00 0.00
3:15 pm 15:15 Mostly Cloudy 75 23.7 33 0.3 21 21 SE 24 39 29.91 1013 10 16 0.00 0.00
3:35 pm 15:35 Partly Cloudy 76 24.3 33 0.7 21 21 ESE 31 50 29.89 1012 10 16 0.00 0.00
3:55 pm 15:55 Partly Cloudy 76 24.4 32 -0.1 20 20 SE 30 48 29.88 1012 10 16 0.00 0.00
4:15 pm 16:15 Partly Cloudy 77 25 33 0.5 20 20 ESE 24 39 29.86 1011 10 16 0.00 0.00
4:35 pm 16:35 Mostly Cloudy 76 24.2 32 0 20 20 SE 24 39 29.85 1011 10 16 0.00 0.00
4:55 pm 16:55 Cloudy 75 23.7 32 0 21 21 ESE 28 44 29.86 1011 10 16 0.00 0.00
5:15 pm 17:15 Cloudy 73 23 32 0.1 22 22 SE 29 46 29.86 1011 10 16 0.00 0.00
5:35 pm 17:35 Cloudy 73 22.9 33 0.3 22 22 SE 28 44 29.86 1011 10 16 0.00 0.00
5:55 pm 17:55 Cloudy 72 22.4 33 0.3 23 23 SE 24 39 29.87 1011 10 16 0.00 0.00
6:15 pm 18:15 Cloudy 73 22.5 33 0.5 23 23 SE 24 39 29.86 1011 10 16 0.00 0.00
6:35 pm 18:35 Cloudy 72 22 36 2.2 27 27 SE 25 41 29.86 1011 10 16 0.00 0.00
6:55 pm 18:55 Cloudy 69 20.3 44 6.5 41 41 SE 25 41 29.87 1012 10 16 0.00 0.00
7:15 pm 19:15 Cloudy 67 19.4 51 10.5 57 57 SE 20 31 29.87 1012 10 16 0.00 0.00
7:35 pm 19:35 Cloudy 67 19.2 49 9.6 54 54 SE 28 44 29.86 1011 10 16 0.00 0.00
7:55 pm 19:55 Cloudy 65 18.5 54 12.3 67 67 ESE 28 44 29.87 1012 10 16 0.00 0.00
8:15 pm 20:15 Cloudy 65 18.5 55 12.5 68 68 ESE 22 35 29.87 1012 10 16 0.00 0.00
8:35 pm 20:35 Cloudy 64 18 54 12.3 69 69 SE 24 39 29.87 1012 10 16 0.00 0.00
8:55 pm 20:55 Cloudy 63 17.4 56 13.3 77 77 ESE 26 43 29.88 1012 10 16 0.00 0.00
9:15 pm 21:15 Cloudy 63 17.2 55 12.7 75 75 ESE 23 37 29.88 1012 10 16 0.00 0.00
9:35 pm 21:35 Cloudy 62 16.5 54 12.4 77 77 ESE 23 37 29.90 1012 10 16 0.00 0.00
9:55 pm 21:55 Cloudy 62 16.5 54 12 75 75 ESE 20 31 29.90 1012 10 16 0.00 0.00
10:15 pm 22:15 Cloudy 62 16.5 53 11.7 73 73 ESE 22 35 29.89 1012 10 16 0.00 0.00
10:35 pm 22:35 Cloudy 60 15.7 55 12.7 82 82 ESE 25 41 29.86 1011 7 11 0.01 0.25
10:55 pm 22:55 Cloudy with Nearby Thunderstorms 60 15.4 55 12.7 84 84 SE 13 20 29.88 1012 10 16 0.01 0.25
11:15 pm 23:15 Cloudy 59 15.2 55 12.7 85 85 ESE 9 15 29.87 1011 10 16 0.00 0.00
11:35 pm 23:35 Cloudy 59 15.1 56 13.2 89 89 E 8 13 29.86 1011 10 16 0.00 0.00
11:55 pm 23:55 Cloudy 59 14.8 56 13.3 91 91 E 8 13 29.86 1011 10 16 0.00 0.00

Powered by AerisWeather